�������l�o���
Date,Time,MP-1(��Sv/h),MP-2(��Sv/h),MP-3(��Sv/h),MP-4(��Sv/h),MP-5(��Sv/h),MP-6(��Sv/h),MP-7(��Sv/h),MP-8(��Sv/h),����,����(m/s),���J
2023/08/13,00:00,0.530,0.799,0.491,0.975,0.713,0.319,0.568,0.530,��쓌,3.5,��
2023/08/13,00:10,0.529,0.797,0.492,0.978,0.712,0.321,0.569,0.530,��,2.9,��
2023/08/13,00:20,0.530,0.799,0.491,0.976,0.714,0.320,0.569,0.530,��,3.8,��
2023/08/13,00:30,0.528,0.798,0.492,0.978,0.710,0.322,0.569,0.529,��쓌,3.6,��
2023/08/13,00:40,0.531,0.799,0.493,0.978,0.713,0.320,0.568,0.530,��쓌,3.6,��
2023/08/13,00:50,0.529,0.800,0.491,0.975,0.714,0.320,0.569,0.530,��,3.0,��
2023/08/13,01:00,0.530,0.798,0.492,0.977,0.713,0.321,0.568,0.531,��,3.1,��
2023/08/13,01:10,0.532,0.798,0.491,0.978,0.712,0.321,0.569,0.530,��,3.3,��
2023/08/13,01:20,0.530,0.799,0.491,0.976,0.715,0.322,0.569,0.531,��,2.6,��
2023/08/13,01:30,0.530,0.800,0.492,0.978,0.713,0.320,0.569,0.529,��쐼,1.9,��
2023/08/13,01:40,0.531,0.798,0.494,0.979,0.714,0.319,0.569,0.530,��,2.0,��
2023/08/13,01:50,0.531,0.798,0.492,0.977,0.713,0.321,0.570,0.530,��쐼,1.5,��
2023/08/13,02:00,0.530,0.802,0.491,0.976,0.713,0.320,0.570,0.529,�쐼,1.2,��
2023/08/13,02:10,0.532,0.802,0.492,0.981,0.713,0.320,0.569,0.531,���쐼,0.6,��
2023/08/13,02:20,0.533,0.802,0.492,0.978,0.712,0.321,0.569,0.531,-,CALM,��
2023/08/13,02:30,0.531,0.798,0.492,0.980,0.715,0.321,0.572,0.529,�k�k��,0.9,��
2023/08/13,02:40,0.532,0.800,0.493,0.976,0.714,0.320,0.569,0.530,�k�k��,1.4,��
2023/08/13,02:50,0.531,0.802,0.491,0.979,0.714,0.321,0.571,0.530,�k�k��,1.4,��
2023/08/13,03:00,0.532,0.800,0.492,0.976,0.715,0.321,0.569,0.530,�k�k��,2.2,��
2023/08/13,03:10,0.532,0.801,0.493,0.980,0.713,0.320,0.569,0.531,�k�k��,2.3,��
2023/08/13,03:20,0.531,0.799,0.494,0.979,0.714,0.321,0.568,0.531,�k�k��,2.8,��
2023/08/13,03:30,0.531,0.801,0.493,0.979,0.714,0.321,0.570,0.530,�k�k��,2.6,��
2023/08/13,03:40,0.530,0.801,0.493,0.979,0.713,0.319,0.570,0.531,�k�k��,2.6,��
2023/08/13,03:50,0.533,0.800,0.491,0.979,0.715,0.323,0.571,0.531,�k�k��,2.9,��
2023/08/13,04:00,0.531,0.802,0.493,0.980,0.714,0.322,0.571,0.532,�k�k��,2.6,��
2023/08/13,04:10,0.530,0.799,0.492,0.978,0.713,0.320,0.570,0.531,�k�k��,2.0,��
2023/08/13,04:20,0.530,0.799,0.491,0.979,0.715,0.321,0.572,0.531,�k�k��,2.5,��
2023/08/13,04:30,0.529,0.801,0.493,0.979,0.715,0.322,0.570,0.530,�k�k��,2.9,��
2023/08/13,04:40,0.531,0.800,0.492,0.978,0.713,0.321,0.570,0.532,�k�k��,3.7,��
2023/08/13,04:50,0.529,0.799,0.492,0.978,0.714,0.320,0.570,0.531,�k�k��,3.8,��
2023/08/13,05:00,0.531,0.800,0.493,0.980,0.714,0.321,0.572,0.530,�k�k��,4.1,��
2023/08/13,05:10,0.532,0.799,0.494,0.981,0.713,0.321,0.571,0.532,�k�k��,4.0,��
2023/08/13,05:20,0.531,0.801,0.491,0.980,0.713,0.322,0.572,0.530,�k�k��,4.1,��
2023/08/13,05:30,0.530,0.798,0.490,0.979,0.714,0.321,0.570,0.531,�k�k��,4.7,��
2023/08/13,05:40,0.530,0.800,0.494,0.978,0.714,0.321,0.572,0.531,�k�k��,4.3,��
2023/08/13,05:50,0.531,0.801,0.492,0.979,0.713,0.321,0.570,0.530,�k�k��,4.7,��
2023/08/13,06:00,0.529,0.800,0.492,0.979,0.714,0.320,0.572,0.531,�k�k��,4.9,��
2023/08/13,06:10,0.530,0.800,0.492,0.980,0.713,0.320,0.570,0.531,�k�k��,4.6,��
2023/08/13,06:20,0.531,0.800,0.492,0.979,0.713,0.319,0.571,0.532,�k�k��,4.7,��
2023/08/13,06:30,0.531,0.798,0.492,0.981,0.713,0.321,0.572,0.531,�k�k��,4.3,��
2023/08/13,06:40,0.532,0.799,0.493,0.981,0.714,0.321,0.572,0.531,�k�k��,4.0,��
2023/08/13,06:50,0.530,0.802,0.491,0.977,0.713,0.320,0.571,0.531,�k�k��,4.1,��
2023/08/13,07:00,0.531,0.801,0.492,0.977,0.712,0.322,0.570,0.531,�k�k��,3.7,��
2023/08/13,07:10,0.532,0.802,0.492,0.978,0.714,0.322,0.570,0.533,�k��,3.1,�L
2023/08/13,07:20,0.531,0.799,0.492,0.980,0.712,0.320,0.572,0.530,�k�k��,2.3,��
2023/08/13,07:30,0.530,0.802,0.492,0.980,0.715,0.319,0.572,0.531,�k�k��,2.6,��
2023/08/13,07:40,0.531,0.801,0.492,0.979,0.713,0.319,0.571,0.533,�k�k��,2.8,��
2023/08/13,07:50,0.532,0.803,0.492,0.979,0.713,0.320,0.571,0.532,�k,2.0,��
2023/08/13,08:00,0.532,0.803,0.491,0.979,0.713,0.321,0.572,0.532,�k�k��,1.7,��
2023/08/13,08:10,0.532,0.803,0.492,0.980,0.714,0.319,0.571,0.532,�k�k��,2.0,��
2023/08/13,08:20,0.531,0.802,0.493,0.980,0.715,0.322,0.571,0.531,�k,2.3,��
2023/08/13,08:30,0.531,0.799,0.490,0.980,0.713,0.321,0.571,0.530,�k,2.0,��
2023/08/13,08:40,0.529,0.801,0.491,0.979,0.713,0.320,0.571,0.529,�k�k��,1.9,��
2023/08/13,08:50,0.530,0.800,0.491,0.981,0.714,0.320,0.572,0.530,�k,2.0,�L
2023/08/13,09:00,0.531,0.799,0.490,0.979,0.712,0.319,0.570,0.529,�k�k��,2.0,��
2023/08/13,09:10,0.530,0.798,0.492,0.979,0.714,0.321,0.572,0.528,�k�k��,2.0,��
2023/08/13,09:20,0.531,0.800,0.491,0.976,0.712,0.320,0.570,0.529,�k��,2.2,��
2023/08/13,09:30,0.530,0.801,0.493,0.978,0.713,0.320,0.571,0.529,�k�k��,2.3,��
2023/08/13,09:40,0.531,0.801,0.491,0.980,0.714,0.320,0.570,0.531,�k��,2.9,��
2023/08/13,09:50,0.532,0.800,0.491,0.979,0.715,0.320,0.569,0.529,�k�k��,2.6,��
2023/08/13,10:00,0.531,0.800,0.492,0.977,0.713,0.319,0.571,0.529,�k��,3.2,��
2023/08/13,10:10,0.531,0.802,0.491,0.980,0.713,0.321,0.570,0.531,�k��,3.3,��
2023/08/13,10:20,0.532,0.801,0.492,0.977,0.714,0.321,0.571,0.531,�k��,3.0,��
2023/08/13,10:30,0.532,0.803,0.491,0.979,0.713,0.320,0.571,0.531,�k�k��,3.1,��
2023/08/13,10:40,0.532,0.802,0.493,0.980,0.715,0.320,0.570,0.532,�k�k��,2.6,��
2023/08/13,10:50,0.530,0.804,0.491,0.978,0.714,0.321,0.570,0.530,�k�k��,2.6,��
2023/08/13,11:00,0.532,0.804,0.493,0.979,0.717,0.320,0.571,0.531,�k��,3.1,��
2023/08/13,11:10,0.534,0.802,0.495,0.978,0.716,0.321,0.571,0.531,�k�k��,3.1,��
2023/08/13,11:20,0.533,0.804,0.493,0.982,0.715,0.320,0.571,0.532,�k�k��,3.6,��
2023/08/13,11:30,0.534,0.803,0.494,0.981,0.719,0.321,0.570,0.530,�k��,3.3,��
2023/08/13,11:40,0.532,0.804,0.494,0.980,0.718,0.321,0.571,0.533,�k��,3.3,��
2023/08/13,11:50,0.534,0.807,0.495,0.979,0.719,0.320,0.572,0.532,�k��,3.4,��
2023/08/13,12:00,0.534,0.805,0.494,0.979,0.718,0.320,0.570,0.531,���k��,3.3,��
2023/08/13,12:10,0.532,0.806,0.493,0.978,0.717,0.322,0.570,0.531,���k��,3.7,��
2023/08/13,12:20,0.535,0.805,0.495,0.981,0.717,0.321,0.571,0.532,���k��,4.0,��
2023/08/13,12:30,0.534,0.805,0.494,0.981,0.719,0.321,0.572,0.534,��,3.0,��
2023/08/13,12:40,0.535,0.806,0.496,0.980,0.720,0.322,0.570,0.533,��,2.2,��
2023/08/13,12:50,0.534,0.805,0.494,0.979,0.721,0.321,0.571,0.532,���쓌,3.3,��
2023/08/13,13:00,0.534,0.808,0.494,0.980,0.718,0.320,0.570,0.533,��,3.3,��
2023/08/13,13:10,0.536,0.808,0.495,0.980,0.720,0.321,0.572,0.533,���쓌,2.8,��
2023/08/13,13:20,0.536,0.808,0.494,0.979,0.721,0.321,0.570,0.532,���쓌,3.4,��
2023/08/13,13:30,0.538,0.807,0.495,0.982,0.720,0.320,0.570,0.532,���쓌,3.3,��
2023/08/13,13:40,0.536,0.807,0.494,0.984,0.721,0.323,0.572,0.533,���쓌,4.0,��
2023/08/13,13:50,0.536,0.808,0.496,0.983,0.723,0.322,0.573,0.532,���쓌,3.3,��
2023/08/13,14:00,0.536,0.809,0.495,0.983,0.720,0.322,0.572,0.533,�쓌,4.3,��
2023/08/13,14:10,0.537,0.808,0.496,0.985,0.722,0.321,0.574,0.533,�쓌,3.0,��
2023/08/13,14:20,0.538,0.809,0.496,0.984,0.721,0.322,0.574,0.533,�쓌,4.0,��
2023/08/13,14:30,0.538,0.809,0.497,0.982,0.722,0.322,0.571,0.535,�쓌,3.9,��
2023/08/13,14:40,0.533,0.810,0.497,0.981,0.722,0.321,0.574,0.535,�쓌,2.5,��
2023/08/13,14:50,0.537,0.810,0.497,0.980,0.722,0.322,0.574,0.534,�쓌,3.2,��
2023/08/13,15:00,0.537,0.809,0.499,0.983,0.723,0.323,0.572,0.533,�쓌,2.8,��
2023/08/13,15:10,0.537,0.811,0.497,0.984,0.724,0.323,0.573,0.533,�쓌,3.3,��
2023/08/13,15:20,0.537,0.811,0.498,0.981,0.725,0.324,0.572,0.532,���쓌,3.5,��
2023/08/13,15:30,0.538,0.811,0.499,0.982,0.721,0.324,0.574,0.532,���쓌,3.9,��
2023/08/13,15:40,0.538,0.811,0.497,0.984,0.720,0.322,0.572,0.531,�쓌,4.3,��
2023/08/13,15:50,0.537,0.812,0.497,0.983,0.725,0.324,0.574,0.531,�쓌,2.6,��
2023/08/13,16:00,0.537,0.811,0.496,0.985,0.724,0.323,0.572,0.531,�쓌,3.9,��
2023/08/13,16:10,0.538,0.811,0.498,0.987,0.724,0.323,0.572,0.531,�쓌,4.6,��
2023/08/13,16:20,0.537,0.811,0.496,0.984,0.723,0.322,0.571,0.531,�쓌,4.5,��
2023/08/13,16:30,0.537,0.813,0.498,0.984,0.723,0.323,0.572,0.532,��쓌,4.2,��
2023/08/13,16:40,0.536,0.813,0.499,0.984,0.723,0.323,0.572,0.532,��쓌,4.5,��
2023/08/13,16:50,0.536,0.811,0.498,0.986,0.722,0.322,0.573,0.531,��쓌,4.0,��
2023/08/13,17:00,0.536,0.809,0.498,0.988,0.722,0.323,0.573,0.532,��쓌,3.1,��
2023/08/13,17:10,0.536,0.810,0.499,0.985,0.723,0.324,0.572,0.532,��쓌,3.9,��
2023/08/13,17:20,0.536,0.811,0.498,0.986,0.723,0.322,0.571,0.532,��쓌,3.3,��
2023/08/13,17:30,0.536,0.810,0.498,0.987,0.723,0.323,0.573,0.532,��쓌,3.0,��
2023/08/13,17:40,0.536,0.811,0.496,0.987,0.724,0.323,0.571,0.532,��쓌,2.6,��
2023/08/13,17:50,0.535,0.810,0.497,0.987,0.722,0.321,0.571,0.532,��쓌,3.1,��
2023/08/13,18:00,0.538,0.812,0.498,0.988,0.724,0.323,0.571,0.531,��쓌,2.6,��
2023/08/13,18:10,0.537,0.811,0.496,0.986,0.725,0.322,0.572,0.530,�쓌,2.6,��
2023/08/13,18:20,0.535,0.811,0.495,0.985,0.724,0.321,0.572,0.531,�쓌,2.3,��
2023/08/13,18:30,0.536,0.811,0.494,0.984,0.724,0.321,0.571,0.532,��쓌,2.8,��
2023/08/13,18:40,0.534,0.810,0.499,0.985,0.725,0.323,0.572,0.533,��쓌,2.2,��
2023/08/13,18:50,0.536,0.809,0.497,0.987,0.724,0.322,0.573,0.531,��,1.7,��
2023/08/13,19:00,0.537,0.807,0.497,0.985,0.725,0.323,0.573,0.532,�쓌,1.2,��
2023/08/13,19:10,0.536,0.810,0.497,0.987,0.721,0.323,0.571,0.530,��쓌,1.2,��
2023/08/13,19:20,0.534,0.812,0.497,0.987,0.723,0.322,0.571,0.531,�쓌,1.2,��
2023/08/13,19:30,0.538,0.810,0.496,0.988,0.726,0.321,0.572,0.532,�쓌,1.7,��
2023/08/13,19:40,0.537,0.811,0.497,0.986,0.723,0.322,0.573,0.531,�쓌,2.2,��
2023/08/13,19:50,0.538,0.810,0.496,0.988,0.724,0.323,0.571,0.532,�쓌,2.0,��
2023/08/13,20:00,0.536,0.811,0.497,0.986,0.724,0.322,0.571,0.532,��쓌,2.0,��
2023/08/13,20:10,0.537,0.811,0.497,0.984,0.726,0.323,0.572,0.532,�쓌,1.7,��
2023/08/13,20:20,0.538,0.811,0.497,0.987,0.725,0.323,0.572,0.532,��쓌,1.1,��
2023/08/13,20:30,0.537,0.811,0.496,0.987,0.725,0.322,0.572,0.532,��쓌,1.9,��
2023/08/13,20:40,0.537,0.813,0.497,0.985,0.724,0.322,0.572,0.531,�쓌,1.9,��
2023/08/13,20:50,0.536,0.810,0.498,0.986,0.727,0.324,0.572,0.531,�쓌,1.2,��
2023/08/13,21:00,0.536,0.813,0.497,0.988,0.725,0.324,0.571,0.533,�쓌,0.9,��
2023/08/13,21:10,0.537,0.813,0.496,0.984,0.724,0.323,0.572,0.532,���쓌,1.7,��
2023/08/13,21:20,0.538,0.813,0.498,0.986,0.726,0.321,0.572,0.532,���쓌,0.9,��
2023/08/13,21:30,0.537,0.811,0.496,0.986,0.726,0.324,0.573,0.532,���쓌,1.1,��
2023/08/13,21:40,0.537,0.812,0.497,0.987,0.726,0.324,0.573,0.530,��,1.1,��
2023/08/13,21:50,0.538,0.811,0.497,0.987,0.725,0.321,0.571,0.531,�k��,0.9,��
2023/08/13,22:00,0.537,0.810,0.498,0.988,0.725,0.323,0.571,0.532,���쓌,0.9,��
2023/08/13,22:10,0.534,0.810,0.498,0.988,0.726,0.324,0.573,0.533,���쓌,0.6,��
2023/08/13,22:20,0.536,0.811,0.499,0.988,0.726,0.323,0.573,0.532,��,1.1,��
2023/08/13,22:30,0.536,0.810,0.495,0.987,0.724,0.323,0.572,0.532,��,0.9,��
2023/08/13,22:40,0.537,0.811,0.497,0.987,0.724,0.323,0.574,0.533,��,0.8,�L
2023/08/13,22:50,0.535,0.810,0.496,0.985,0.725,0.323,0.571,0.532,�k��,1.5,�L
2023/08/13,23:00,0.534,0.808,0.495,0.987,0.724,0.323,0.571,0.531,�k��,2.5,�L
2023/08/13,23:10,0.534,0.808,0.496,0.986,0.722,0.323,0.572,0.531,�k��,2.6,��
2023/08/13,23:20,0.533,0.808,0.496,0.987,0.723,0.323,0.571,0.530,���k��,3.3,��
2023/08/13,23:30,0.534,0.808,0.495,0.987,0.724,0.321,0.570,0.531,���k��,2.3,��
2023/08/13,23:40,0.534,0.807,0.496,0.985,0.723,0.323,0.570,0.530,���k��,3.2,��
2023/08/13,23:50,0.534,0.806,0.496,0.985,0.721,0.322,0.571,0.530,���k��,2.5,��
